GW1838 Weather Reports


Display with metric or nautical units.
time (UTC)temp
F
wind
direction
speed
MPH
gust
MPH
rain 1hr
in
rain 24hr
in
rain mn
in
humidity
%
barometer
mb
20260503205305 59 258 9.0 15.0 0.00 0.00 0.00 38 1011.0
20260503204805 59 306 7.0 16.0 0.00 0.00 0.00 37 1011.0
20260503204306 59 281 11.0 21.0 0.00 0.00 0.00 39 1010.9
20260503203805 59 286 6.0 12.0 0.00 0.00 0.00 38 1010.9
20260503203306 59 274 7.0 15.0 0.00 0.00 0.00 38 1011.0
20260503195805 57 262 10.0 16.0 0.00 0.00 0.00 38 1011.0
20260503194805 57 266 10.0 20.0 0.00 0.00 0.00 41 1011.2
20260503194305 57 280 10.0 20.0 0.00 0.00 0.00 41 1011.2
20260503193806 57 286 7.0 13.0 0.00 0.00 0.00 41 1011.3
20260503192807 57 278 6.0 14.0 0.00 0.00 0.00 42 1011.4
20260503192305 57 280 5.0 12.0 0.00 0.00 0.00 43 1011.4
20260503191304 56 266 6.0 14.0 0.00 0.00 0.00 43 1011.5
20260503190805 56 270 7.0 13.0 0.00 0.00 0.00 45 1011.5
20260503185805 56 274 10.0 15.0 0.00 0.00 0.00 43 1011.6
20260503185305 56 274 6.0 16.0 0.00 0.00 0.00 43 1011.6
20260503183306 56 263 7.0 14.0 0.00 0.00 0.00 43 1011.6
20260503182805 56 271 7.0 14.0 0.00 0.00 0.00 44 1011.8
20260503182306 56 260 6.0 13.0 0.00 0.00 0.00 45 1011.7
20260503181305 55 279 6.0 15.0 0.00 0.00 0.00 42 1011.8
20260503175305 55 272 6.0 13.0 0.00 0.00 0.00 43 1011.8
20260503174305 55 322 7.0 13.0 0.00 0.00 0.00 46 1011.7
20260503170305 53 251 5.0 13.0 0.00 0.00 0.00 48 1011.8
20260503131305 49 341 7.0 13.0 0.00 0.00 0.00 61 1011.9
20260503130304 48 304 9.0 15.0 0.00 0.00 0.00 61 1011.8
20260503110805 47 291 5.0 13.0 0.00 0.00 0.00 65 1011.0
20260503110304 47 301 3.0 9.0 0.00 0.00 0.00 65 1010.9
20260503090304 48 340 9.0 14.0 0.00 0.00 0.00 63 1009.1
20260503081305 49 327 6.0 13.0 0.00 0.00 0.00 63 1008.9
20260503072804 50 316 5.0 12.0 0.00 0.00 0.00 60 1008.9
20260503071805 50 339 5.0 12.0 0.00 0.00 0.00 61 1008.9
20260503070804 51 308 4.0 9.0 0.00 0.00 0.00 61 1008.8
20260503060305 52 342 5.0 14.0 0.00 0.00 0.00 61 1009.0
20260503054805 52 322 6.0 12.0 0.00 0.00 0.00 62 1009.0
20260503054304 52 356 6.0 12.0 0.00 0.00 0.00 61 1009.1
20260503052306 52 338 5.0 12.0 0.00 0.00 0.00 62 1009.3
20260503051804 52 313 6.0 13.0 0.00 0.00 0.00 60 1009.3
20260503050804 53 324 7.0 13.0 0.00 0.00 0.00 59 1009.3
20260503045804 53 312 5.0 10.0 0.00 0.00 0.00 60 1009.3
20260503045305 53 330 6.0 12.0 0.00 0.00 0.00 60 1009.5
20260503044805 53 295 6.0 13.0 0.00 0.00 0.00 61 1009.5
20260503044304 53 341 6.0 13.0 0.00 0.00 0.00 59 1009.5
20260503043804 53 338 7.0 14.0 0.00 0.00 0.00 61 1009.4
20260503042805 53 339 6.0 12.0 0.00 0.00 0.00 61 1009.7
20260503041805 53 313 5.0 12.0 0.00 0.00 0.00 61 1009.7
20260503041305 53 312 5.0 13.0 0.00 0.00 0.00 62 1009.8
20260503035804 53 298 5.0 9.0 0.00 0.00 0.00 65 1009.8
20260503033305 52 309 3.0 7.0 0.00 0.00 0.00 74 1009.7
20260503032304 51 288 3.0 7.0 0.00 0.00 0.00 81 1009.7
20260503031804 51 283 3.0 6.0 0.00 0.00 0.00 83 1009.8
20260503031304 51 268 4.0 7.0 0.00 0.00 0.00 84 1009.8
20260503030804 51 267 4.0 7.0 0.00 0.00 0.00 86 1010.0
20260503025305 51 258 5.0 7.0 0.00 0.00 0.00 86 1010.0
20260503024304 51 259 7.0 10.0 0.00 0.00 0.00 86 1010.1
20260503023304 51 257 4.0 7.0 0.00 0.00 0.00 85 1009.8
20260503022804 52 269 3.0 6.0 0.00 0.00 0.00 85 1009.8
20260503022305 52 250 5.0 7.0 0.00 0.00 0.00 84 1009.9
20260503021305 52 267 3.0 6.0 0.00 0.00 0.00 84 1009.9
20260503012805 51 202 2.0 3.0 0.00 0.00 0.00 86 1010.2
20260503012305 51 201 3.0 5.0 0.00 0.00 0.00 86 1010.3
20260503011805 51 184 2.0 3.0 0.00 0.00 0.00 86 1010.4
20260503011304 51 184 2.0 3.0 0.00 0.00 0.00 86 1010.3
20260503010804 51 184 2.0 5.0 0.00 0.00 0.00 86 1010.2
20260503004804 51 184 2.0 5.0 0.00 0.00 0.00 87 1009.8
20260503004305 51 184 2.0 3.0 0.00 0.00 0.00 86 1009.8
20260503003805 51 184 1.0 3.0 0.00 0.00 0.00 86 1009.8
20260503003304 51 184 0.0 1.0 0.00 0.00 0.00 86 1009.8
20260503002805 51 184 1.0 3.0 0.00 0.00 0.00 86 1009.8
20260503000304 52 184 2.0 3.0 0.00 0.00 0.00 86 1009.7
20260502234304 52 188 2.0 3.0 0.00 0.00 0.00 85 1009.7
20260502233304 52 173 3.0 5.0 0.00 0.00 0.00 84 1009.8
20260502231804 52 167 2.0 3.0 0.00 0.00 0.00 84 1009.8
20260502225804 52 170 3.0 5.0 0.00 0.00 0.00 84 1009.7
20260502224805 53 149 2.0 5.0 0.00 0.00 0.00 83 1009.6
20260502223804 53 158 3.0 5.0 0.00 0.00 0.00 83 1009.7
20260502222804 53 153 3.0 6.0 0.00 0.00 0.00 82 1009.6
20260502221804 53 113 1.0 3.0 0.00 0.00 0.00 82 1009.5
20260502221304 53 142 3.0 5.0 0.00 0.00 0.00 81 1009.7
20260502220803 54 114 2.0 3.0 0.00 0.00 0.00 81 1009.7
20260502214805 54 112 1.0 3.0 0.00 0.00 0.00 80 1009.6
20260502213804 54 111 1.0 3.0 0.00 0.00 0.00 80 1009.5
20260502213303 54 109 0.0 2.0 0.00 0.00 0.00 80 1009.6
20260502211306 54 136 1.0 3.0 0.00 0.00 0.00 81 1009.4
20260502210806 54 142 2.0 3.0 0.00 0.00 0.00 80 1009.3
20260502210306 54 152 2.0 3.0 0.00 0.00 0.00 80 1009.1